Location: *
(33.8649°S, 62.1526°E)
Time: 12:56:02
(UTC+00:00)

SJ-6B - Pass Details

Date: 17 January 2021
Orbit: 510 x 580 km, 97.6° (Epoch: 02 March)

Event Time Altitude Azimuth Distance (km) Brightness Sun altitude
Rises 16:54:08 0° 178° (S) 2,674 7.0 -19.6°
Reaches altitude 10° 16:56:22 10° 186° (S) 1,770 6.1 -19.9°
Maximum altitude 16:59:53 37° 254° (WSW) 826 4.2 -20.4°
Drops below altitude 10° 17:03:21 10° 321° (NW) 1,735 5.3 -21.0°
Enters shadow 17:03:29 - 322° (NW) 1,792 5.3 -21.0°
